Location: Ellerstadt
(49.4644°N, 8.2615°E)
Time: 02:41:23
(UTC+00:00)

ISS - Visible Passes

Search period start: 15 May 2021 00:00
Search period end: 25 May 2021 00:00
Orbit: 417 x 422 km, 51.6° (Epoch: 14 May)

Date Brightness Start Highest point End Pass type
(mag) Time Alt. Az. Time Alt. Az. Time Alt. Az.
15 May -3.2 00:04:12 10° WNW 00:07:33 59° N 00:10:54 10° E visible
15 May -3.8 01:41:04 10° WNW 01:44:26 63° SSW 01:47:47 10° ESE visible
15 May -2.5 20:03:58 10° SSW 20:06:36 21° SE 20:09:14 10° E visible
15 May -3.9 21:39:42 10° WSW 21:43:04 85° SSE 21:46:28 10° ENE visible
15 May -3.1 23:16:42 10° W 23:20:02 57° N 23:23:23 10° E visible
16 May -3.9 00:53:37 10° WNW 00:57:00 84° SSW 01:00:23 10° ESE visible
16 May -2.5 02:30:50 10° W 02:33:29 21° SW 02:36:07 10° SSE visible
16 May -3.8 20:52:18 10° WSW 20:55:38 64° SSE 20:58:59 10° ENE visible
16 May -3.2 22:29:11 10° W 22:32:31 58° N 22:35:52 10° ENE visible
17 May -3.7 00:06:09 10° WNW 00:09:32 77° NNE 00:12:55 10° ESE visible
17 May -3.0 01:43:08 10° W 01:46:10 31° SW 01:49:11 10° SSE visible
17 May -3.5 20:05:01 10° SW 20:08:14 45° SSE 20:11:29 10° ENE visible
17 May -3.4 21:41:39 10° W 21:45:00 65° N 21:48:23 10° ENE visible
17 May -3.4 23:18:40 10° WNW 23:22:02 65° N 23:22:53 45° ENE visible
18 May -1.2 00:55:34 10° WNW 00:55:46 11° WNW 00:55:46 11° WNW visible
18 May -3.6 20:54:08 10° WSW 20:57:31 77° NNW 21:00:54 10° ENE visible
18 May -3.2 22:31:11 10° WNW 22:34:32 59° N 22:36:27 23° E visible
19 May -1.9 00:08:03 10° WNW 00:09:22 21° W 00:09:22 21° W visible
19 May -3.8 20:06:40 10° WSW 20:10:02 85° SSE 20:13:25 10° ENE visible
19 May -3.1 21:43:40 10° W 21:47:00 57° N 21:50:15 10° E visible
19 May -3.2 23:20:34 10° WNW 23:23:10 50° WNW 23:23:10 50° WNW visible
20 May -3.1 20:56:08 10° W 20:59:28 58° N 21:02:48 10° ENE visible
20 May -3.7 22:33:05 10° WNW 22:36:28 78° NNE 22:37:05 56° E visible
21 May -3.3 20:08:35 10° W 20:11:56 65° N 20:15:17 10° ENE visible
21 May -3.4 21:45:36 10° WNW 21:48:58 65° N 21:51:02 21° E visible
21 May -2.0 23:22:30 10° WNW 23:23:57 22° W 23:23:57 22° W visible
22 May -3.2 20:58:05 10° WNW 21:01:26 59° N 21:04:47 10° E visible
22 May -3.6 22:34:58 10° WNW 22:37:56 57° WSW 22:37:56 57° WSW visible
23 May -3.1 20:10:33 10° W 20:13:53 57° N 20:17:13 10° E visible
23 May -3.9 21:47:27 10° WNW 21:50:51 84° SSW 21:51:56 40° ESE visible
23 May -1.1 23:24:42 10° W 23:24:52 11° W 23:24:52 11° W visible
24 May -3.7 20:59:58 10° WNW 21:03:20 78° NNE 21:05:57 16° ESE visible
24 May -2.2 22:36:57 10° W 22:38:54 25° WSW 22:38:54 25° WSW visible
